Wenatchee, WA
on Tuesday, December 4, 2012

Tuesday
Previous Day Next Day
Daily Summary
 ActualAverageRecord
Temperature
Mean Temperature °F 30°F  
Max Temperature 48°F 35°F 55°F (1975)
Min Temperature 38°F 26°F 5°F (1984)
Degree Days
Heating Degree Days 22 35  
Month to date heating degree days 90 137  
Since 1 July heating degree days 1705 1509  
Cooling Degree Days 0 0  
Month to date cooling degree days 0 0  
Year to date cooling degree days 294 790  
Moisture
Dew Point 37°F   
Average Humidity 85    
Maximum Humidity 93    
Minimum Humidity 66    
Precipitation
Precipitation 0.38 in 0.05 in 0.34 in (1967)
Month to date precipitation 0.88 0.19  
Year to date precipitation 21.42 6.80  
Snow
Snow 0.00 in in in ()
Month to date snowfall 0.0  
Snow Depth 0.00 in   
Wind
Wind Speed 6 mph   
Max Wind Speed 15 mph   
Max Gust Speed mph   
Visibility 10 miles   
Events Rain   

Key: T is trace of precipitation, MM is missing value
Source: NWS Daily Summary
Time(PST)TemperatureDew PointHumidity Pressure Visibility Wind DirectionWind SpeedGust SpeedPrecipitationEvents Conditions
12:55 AM 46.0°F 35.1°F 66% 29.77 in 10.0 miles ESE 8.1 mph - N/A   Overcast
1:55 AM 44.1°F 36.0°F 73% 29.76 in 9.0 miles ESE 5.8 mph - 0.01 in Rain Light Rain
2:47 AM 42.8°F 37.4°F 81% 29.72 in 10.0 miles East 10.4 mph - 0.05 in Rain Light Rain
2:55 AM 42.1°F 37.9°F 85% 29.75 in 10.0 miles East 6.9 mph - 0.05 in Rain Light Rain
3:55 AM 42.1°F 37.9°F 85% 29.74 in 10.0 miles East 15.0 mph - 0.02 in Rain Light Rain
4:08 AM 42.8°F 37.4°F 81% 29.72 in 10.0 miles East 13.8 mph - 0.00 in Rain Light Rain
4:55 AM 41.0°F 37.0°F 86% 29.73 in 10.0 miles ESE 6.9 mph - 0.00 in   Overcast
5:10 AM 41.0°F 37.4°F 87% 29.72 in 10.0 miles ESE 5.8 mph - N/A   Overcast
5:55 AM 42.1°F 37.0°F 82% 29.74 in 10.0 miles ESE 4.6 mph - N/A   Overcast
6:37 AM 41.0°F 37.4°F 87% 29.73 in 10.0 miles WNW 4.6 mph - N/A   Overcast
6:55 AM 39.9°F 37.0°F 89% 29.75 in 10.0 miles WNW 3.5 mph - N/A   Overcast
7:55 AM 41.0°F 37.0°F 86% 29.76 in 10.0 miles Calm Calm - N/A   Overcast
8:15 AM 41.0°F 37.4°F 87% 29.74 in 10.0 miles Calm Calm - N/A   Overcast
8:23 AM 41.0°F 37.4°F 87% 29.74 in 10.0 miles Calm Calm - N/A   Unknown
8:53 AM 39.2°F 37.4°F 93% 29.75 in 10.0 miles SW 3.5 mph - N/A   Overcast
8:55 AM 39.9°F 37.0°F 89% 29.77 in 10.0 miles SW 3.5 mph - N/A   Overcast
9:55 AM 41.0°F 37.0°F 86% 29.77 in 10.0 miles Calm Calm - N/A   Overcast
10:55 AM 41.0°F 37.0°F 86% 29.77 in 10.0 miles SW 3.5 mph - N/A   Overcast
11:55 AM 42.1°F 37.9°F 85% 29.76 in 10.0 miles WSW 3.5 mph - N/A   Overcast
12:55 PM 42.1°F 37.9°F 85% 29.76 in 10.0 miles WNW 6.9 mph - 0.01 in Rain Light Rain
1:55 PM 43.0°F 37.9°F 82% 29.77 in 10.0 miles West 4.6 mph - 0.00 in   Overcast
2:45 PM 44.6°F 37.4°F 76% 29.75 in 10.0 miles WNW 3.5 mph - 0.00 in   Overcast
2:55 PM 44.1°F 37.9°F 79% 29.77 in 10.0 miles NW 4.6 mph - 0.00 in   Overcast
3:55 PM 44.1°F 37.9°F 79% 29.75 in 10.0 miles Calm Calm - 0.00 in   Overcast
4:55 PM 43.0°F 39.0°F 86% 29.74 in 10.0 miles WNW 3.5 mph - 0.00 in   Overcast
5:55 PM 42.1°F 39.0°F 89% 29.74 in 8.0 miles West 4.6 mph - 0.00 in Rain Light Rain
6:55 PM 42.1°F 39.0°F 89% 29.74 in 10.0 miles Calm Calm - 0.00 in Rain Light Rain
7:55 PM 39.9°F 37.0°F 89% 29.71 in 10.0 miles SSW 4.6 mph - 0.00 in   Mostly Cloudy
8:55 PM 41.0°F 37.9°F 89% 29.71 in 9.0 miles Calm Calm - N/A   Overcast
9:55 PM 39.9°F 37.9°F 93% 29.70 in 8.0 miles Calm Calm - N/A   Overcast
10:55 PM 37.9°F 36.0°F 93% 29.70 in 9.0 miles Calm Calm - N/A   Partly Cloudy
11:55 PM 42.1°F 36.0°F 79% 29.72 in 10.0 miles North 6.9 mph - N/A   Partly Cloudy
Moon Phase
Dec. 04 Dec. 06 Dec. 13 Dec. 20 Dec. 28
Sunrise:07:31 AM (PST) Moon Rise:10:20 PM (PST)12/4
Sunset:04:10 PM (PST) Moon Set:11:13 AM (PST)12/4

Copyright © 2014 The Weather Underground, Inc.